International Skating Union - Official Site

ISU World Cup Heerenveen
December 12-14, 2014

Draw | Lap Times | Index | World Cup

Referee: Dan  IMMERFALL  (USA)
Starter: Stefan  KAMML  (GER)
StartTime: EndTime: Air Temp: Ice Temp: Humidity:
14:50 16:06 13℃ -7.6℃ 31%
Result 5000m Men Division A
Rankings as of Dec 13 2014 5:05PM
Rank: No.: Name: Nation: Time: Behind: Points:
1 84 Sven  Kramer NED NED 6:12.74200m - 18.56 - (18.5)
600m - 47.65 - (29.0)
1000m - 1:17.60 - (29.9)
1400m - 1:47.38 - (29.7)
1800m - 2:16.91 - (29.5)
2200m - 2:46.63 - (29.7)
2600m - 3:16.37 - (29.7)
3000m - 3:45.87 - (29.5)
3400m - 4:15.34 - (29.4)
3800m - 4:44.90 - (29.5)
4200m - 5:14.25 - (29.3)
4600m - 5:43.74 - (29.4)
5000m - 6:12.74 - (29.0)
100
2 80 Jorrit  Bergsma NED NED 6:14.08200m - 19.60 - (19.6)
600m - 48.79 - (29.1)
1000m - 1:18.50 - (29.7)
1400m - 1:48.10 - (29.6)
1800m - 2:17.75 - (29.6)
2200m - 2:47.23 - (29.4)
2600m - 3:16.76 - (29.5)
3000m - 3:46.25 - (29.5)
3400m - 4:15.56 - (29.3)
3800m - 4:45.05 - (29.4)
4200m - 5:14.60 - (29.5)
4600m - 5:44.23 - (29.6)
5000m - 6:14.08 - (29.8)
1.34 80
3 88 Wouter  olde Heuvel NED NED 6:19.58200m - 18.61 - (18.6)
600m - 47.77 - (29.1)
1000m - 1:17.12 - (29.3)
1400m - 1:46.92 - (29.8)
1800m - 2:16.68 - (29.7)
2200m - 2:46.37 - (29.6)
2600m - 3:16.26 - (29.8)
3000m - 3:46.31 - (30.0)
3400m - 4:16.53 - (30.2)
3800m - 4:47.41 - (30.8)
4200m - 5:18.06 - (30.6)
4600m - 5:48.83 - (30.7)
5000m - 6:19.58 - (30.7)
6.84 70
4 82 Bob  de Jong NED NED 6:20.48200m - 19.50 - (19.5)
600m - 48.98 - (29.4)
1000m - 1:18.96 - (29.9)
1400m - 1:49.11 - (30.1)
1800m - 2:19.09 - (29.9)
2200m - 2:49.03 - (29.9)
2600m - 3:19.13 - (30.1)
3000m - 3:49.34 - (30.2)
3400m - 4:19.64 - (30.3)
3800m - 4:49.89 - (30.2)
4200m - 5:19.99 - (30.1)
4600m - 5:50.22 - (30.2)
5000m - 6:20.48 - (30.2)
7.74 60
5 101 Sverre  Lunde Pedersen NOR NOR 6:22.56200m - 18.69 - (18.6)
600m - 48.55 - (29.8)
1000m - 1:19.08 - (30.5)
1400m - 1:49.36 - (30.2)
1800m - 2:19.49 - (30.1)
2200m - 2:49.57 - (30.0)
2600m - 3:19.81 - (30.2)
3000m - 3:49.98 - (30.1)
3400m - 4:19.95 - (29.9)
3800m - 4:50.19 - (30.2)
4200m - 5:20.54 - (30.3)
4600m - 5:51.05 - (30.5)
5000m - 6:22.56 - (31.5)
9.82 50
6 122 Aleksandr  Rumyantsev RUS RUS 6:23.07200m - 18.96 - (18.9)
600m - 48.35 - (29.3)
1000m - 1:18.08 - (29.7)
1400m - 1:47.96 - (29.8)
1800m - 2:17.88 - (29.9)
2200m - 2:47.80 - (29.9)
2600m - 3:17.89 - (30.0)
3000m - 3:48.11 - (30.2)
3400m - 4:18.64 - (30.5)
3800m - 4:49.23 - (30.6)
4200m - 5:19.98 - (30.7)
4600m - 5:50.87 - (30.8)
5000m - 6:23.07 - (32.1)
10.33 45
7 5 Bart  Swings BEL BEL 6:24.67200m - 18.94 - (18.9)
600m - 48.13 - (29.1)
1000m - 1:17.96 - (29.8)
1400m - 1:48.42 - (30.4)
1800m - 2:18.94 - (30.5)
2200m - 2:49.42 - (30.4)
2600m - 3:19.75 - (30.3)
3000m - 3:49.98 - (30.2)
3400m - 4:20.52 - (30.5)
3800m - 4:51.04 - (30.5)
4200m - 5:22.08 - (31.0)
4600m - 5:53.20 - (31.1)
5000m - 6:24.67 - (31.4)
11.93 40
8 36 Patrick  Beckert GER GER 6:24.78200m - 19.61 - (19.6)
600m - 48.90 - (29.2)
1000m - 1:18.61 - (29.7)
1400m - 1:48.47 - (29.8)
1800m - 2:18.54 - (30.0)
2200m - 2:49.10 - (30.5)
2600m - 3:19.66 - (30.5)
3000m - 3:50.54 - (30.8)
3400m - 4:21.29 - (30.7)
3800m - 4:52.24 - (30.9)
4200m - 5:22.98 - (30.7)
4600m - 5:53.78 - (30.8)
5000m - 6:24.78 - (30.9)
12.04 35
9 33 Alexis  Contin FRA FRA 6:25.37200m - 19.42 - (19.4)
600m - 49.47 - (30.0)
1000m - 1:19.64 - (30.1)
1400m - 1:49.83 - (30.1)
1800m - 2:20.27 - (30.4)
2200m - 2:50.71 - (30.4)
2600m - 3:20.88 - (30.1)
3000m - 3:51.26 - (30.3)
3400m - 4:21.68 - (30.4)
3800m - 4:52.27 - (30.5)
4200m - 5:22.71 - (30.4)
4600m - 5:53.67 - (30.9)
5000m - 6:25.37 - (31.7)
12.63 30
10 95 Douwe  de Vries NED NED 6:27.00200m - 18.99 - (19.0)
600m - 48.51 - (29.5)
1000m - 1:18.38 - (29.8)
1400m - 1:48.06 - (29.6)
1800m - 2:17.82 - (29.7)
2200m - 2:47.80 - (29.9)
2600m - 3:18.43 - (30.6)
3000m - 3:49.22 - (30.8)
3400m - 4:20.29 - (31.0)
3800m - 4:51.55 - (31.2)
4200m - 5:23.30 - (31.7)
4600m - 5:55.20 - (31.9)
5000m - 6:27.00 - (31.8)
14.26 25
11 46 Andrea  Giovannini ITA ITA 6:30.59200m - 19.45 - (19.4)
600m - 49.14 - (29.7)
1000m - 1:19.82 - (30.6)
1400m - 1:50.17 - (30.3)
1800m - 2:20.73 - (30.5)
2200m - 2:51.37 - (30.6)
2600m - 3:22.09 - (30.7)
3000m - 3:53.10 - (31.0)
3400m - 4:24.24 - (31.1)
3800m - 4:55.70 - (31.4)
4200m - 5:27.26 - (31.5)
4600m - 5:58.76 - (31.5)
5000m - 6:30.59 - (31.8)
17.85 21
12 124 Yevgeny  Seryaev RUS RUS 6:31.81200m - 19.80 - (19.8)
600m - 49.66 - (29.8)
1000m - 1:19.57 - (29.9)
1400m - 1:50.02 - (30.4)
1800m - 2:20.29 - (30.2)
2200m - 2:50.84 - (30.5)
2600m - 3:21.45 - (30.6)
3000m - 3:52.54 - (31.0)
3400m - 4:23.77 - (31.2)
3800m - 4:55.02 - (31.2)
4200m - 5:27.01 - (31.9)
4600m - 5:59.42 - (32.4)
5000m - 6:31.81 - (32.3)
19.07 18
13 77 Seung-Hoon  Lee KOR KOR 6:32.50200m - 19.35 - (19.3)
600m - 49.26 - (29.9)
1000m - 1:18.91 - (29.6)
1400m - 1:49.13 - (30.2)
1800m - 2:19.35 - (30.2)
2200m - 2:50.07 - (30.7)
2600m - 3:20.86 - (30.7)
3000m - 3:52.19 - (31.3)
3400m - 4:23.68 - (31.5)
3800m - 4:55.20 - (31.5)
4200m - 5:27.29 - (32.0)
4600m - 5:59.86 - (32.5)
5000m - 6:32.50 - (32.6)
19.76 16
14 113 Jan  Szymanski POL POL 6:33.51200m - 18.75 - (18.7)
600m - 48.35 - (29.6)
1000m - 1:18.71 - (30.3)
1400m - 1:49.43 - (30.7)
1800m - 2:20.42 - (30.9)
2200m - 2:51.30 - (30.8)
2600m - 3:22.53 - (31.2)
3000m - 3:53.79 - (31.2)
3400m - 4:24.72 - (30.9)
3800m - 4:55.90 - (31.1)
4200m - 5:27.92 - (32.0)
4600m - 6:00.46 - (32.5)
5000m - 6:33.51 - (33.0)
20.77 14
15 123 Danila  Semerikov RUS RUS 6:37.58200m - 19.52 - (19.5)
600m - 49.77 - (30.2)
1000m - 1:20.41 - (30.6)
1400m - 1:51.06 - (30.6)
1800m - 2:21.87 - (30.8)
2200m - 2:52.63 - (30.7)
2600m - 3:23.48 - (30.8)
3000m - 3:54.52 - (31.0)
3400m - 4:25.64 - (31.1)
3800m - 4:57.17 - (31.5)
4200m - 5:29.36 - (32.1)
4600m - 6:02.47 - (33.1)
5000m - 6:37.58 - (35.1)
24.84 12
16 8 Jordan  Belchos CAN CAN 6:41.29200m - 19.27 - (19.2)
600m - 49.33 - (30.0)
1000m - 1:19.89 - (30.5)
1400m - 1:50.59 - (30.6)
1800m - 2:21.50 - (30.9)
2200m - 2:52.71 - (31.2)
2600m - 3:24.30 - (31.5)
3000m - 3:56.46 - (32.1)
3400m - 4:29.04 - (32.5)
3800m - 5:01.96 - (32.9)
4200m - 5:35.16 - (33.2)
4600m - 6:08.25 - (33.0)
5000m - 6:41.29 - (33.0)
28.55 10